Hurghada, Egypt

10:32 PM EET on October 01, 2016 (GMT +0200)
Hurghada International

Weather History for HEGN - February, 2014

Change the Weather History Date:

Sunday, February 16, 2014

  Actual Average Record
Temperature  
Mean Temperature 64 °F -  
Max Temperature 72 °F 70 °F 93 °F (2016)
Min Temperature 57 °F 53 °F 35 °F (2005)
Growing Degree Days 14 (Base 50)    
Moisture  
Dew Point 46 °F    
Average Humidity 48    
Maximum Humidity 68    
Minimum Humidity 27    
Precipitation  
Precipitation 0.00 in - - ()
Sea Level Pressure  
Sea Level Pressure 29.97 in    
Wind  
Wind Speed 17 mph ()    
Max Wind Speed 30 mph    
Max Gust Speed -    
Visibility 6.1 miles    
Events      
Averages and records for this station are not official NWS values.
T = Trace of Precipitation, MM = Missing Value Source: Averaged Metar Reports

Daily Weather History Graph

Daily Weather History Graph

Search for Another Location

Airport or City:

Trip Planner

Search our weather history database for the weather conditions in past years. The results will help you decide how hot, cold, wet, or windy it might be!

Date:

Astronomy

Feb. 16, 2014 Rise Set
Actual Time 6:20 AM EET 5:37 PM EET
Civil Twilight 5:57 AM EET 6:00 PM EET
Nautical Twilight 5:29 AM EET 6:28 PM EET
Astronomical Twilight 5:02 AM EET 6:55 PM EET
Moon 7:01 PM EET (2/16) 6:50 AM EET (2/16)
Length of Visible Light 12h 03m
Length of Day
11h 16m
Full, 98% of the Moon is Illuminated
Feb 16
Full
Feb 22
Last Quarter
Mar 1
New
Mar 8
First Quarter
Mar 16
Full

Hourly Weather History & Observations

Time (EET) Temp. Dew Point Humidity Pressure Visibility Wind Dir Wind Speed Gust Speed Precip Events Conditions
1:00 AM 60.8 °F 44.6 °F 55% 29.92 in 6.2 mi WNW 11.5 mph - N/A   Partly Cloudy
2:00 AM 60 °F 44 °F 43% 29.92 in 6 mi NW 13.8 mph - -  
2:00 AM 59.0 °F 42.8 °F 55% 29.92 in - NW 13.8 mph - N/A   Clear
3:00 AM 59.0 °F 44.6 °F 59% 29.89 in - NW 16.1 mph - N/A   Clear
4:00 AM 59.0 °F 44.6 °F 59% 29.89 in - WNW 17.3 mph - N/A   Clear
5:00 AM 59 °F 43 °F 45% 29.86 in 6 mi NW 13.8 mph - -  
5:00 AM 59.0 °F 42.8 °F 55% 29.89 in - NW 13.8 mph - N/A   Clear
6:00 AM 59.0 °F 42.8 °F 55% 29.92 in - WNW 12.7 mph - N/A   Clear
7:00 AM 59.0 °F 42.8 °F 55% 29.95 in 6.2 mi NW 17.3 mph - N/A   Partly Cloudy
8:00 AM 62 °F 42 °F 37% 29.97 in 6 mi WNW 24.2 mph - -   Scattered Clouds
8:00 AM 62.6 °F 42.8 °F 48% 29.95 in 6.2 mi WNW 24.2 mph - N/A   Partly Cloudy
9:00 AM 66.2 °F 41.0 °F 40% 29.98 in 6.2 mi NW 25.3 mph - N/A   Partly Cloudy
10:00 AM 68.0 °F 42.8 °F 40% 29.98 in 6.2 mi NW 25.3 mph - N/A   Partly Cloudy
11:00 AM 69 °F 42 °F 27% 30.00 in 6 mi NNW 25.3 mph - -   Scattered Clouds
11:00 AM 69.8 °F 42.8 °F 38% 29.98 in 6.2 mi NNW 25.3 mph - N/A   Partly Cloudy
12:00 PM 69.8 °F 44.6 °F 40% 29.98 in 6.2 mi North 29.9 mph - N/A   Partly Cloudy
1:00 PM 71.6 °F 48.2 °F 43% 29.95 in 6.2 mi North 25.3 mph - N/A   Partly Cloudy
2:00 PM 71 °F 51 °F 38% 29.97 in 6 mi North 29.9 mph - -   Scattered Clouds
2:00 PM 71.6 °F 51.8 °F 50% 29.95 in 6.2 mi North 29.9 mph - N/A   Partly Cloudy
3:00 PM 69.8 °F 46.4 °F 43% 29.95 in 6.2 mi North 29.9 mph - N/A   Partly Cloudy
4:00 PM 69.8 °F 44.6 °F 40% 29.98 in 6.2 mi North 27.6 mph - N/A   Partly Cloudy
5:00 PM 69 °F 47 °F 34% 29.98 in 6 mi North 25.3 mph - -   Scattered Clouds
5:00 PM 69.8 °F 46.4 °F 43% 29.98 in 6.2 mi North 25.3 mph - N/A   Partly Cloudy
6:00 PM 68.0 °F 44.6 °F 43% 29.98 in 6.2 mi North 23.0 mph - N/A   Partly Cloudy
7:00 PM 66.2 °F 50.0 °F 56% 30.01 in 6.2 mi NNW 17.3 mph - N/A   Partly Cloudy
8:00 PM 64 °F 49 °F 47% 30.05 in 6 mi NNW 18.4 mph - -  
8:00 PM 64.4 °F 48.2 °F 56% 30.04 in - NNW 18.4 mph - N/A   Clear
9:00 PM 62.6 °F 48.2 °F 59% 30.06 in - NW 11.5 mph - N/A   Clear
10:00 PM 60.8 °F 48.2 °F 63% 30.06 in - WNW 23.0 mph - N/A   Clear
11:00 PM 61 °F 49 °F 56% 30.08 in 6 mi WNW 13.8 mph - -  
11:00 PM 60.8 °F 50.0 °F 68% 30.06 in - WNW 13.8 mph - N/A   Clear